Location: Newark
(34.1333°N, 7.9667°W)
Time: 14:15:20
(UTC+00:00)

S-56A Canister/Altair - Pass Details

Date: 07 December 2021
Orbit: 634 x 2499 km, 38.9° (Epoch: 25 January)

Event Time Altitude Azimuth Distance (km) Brightness Sun altitude
Rises 20:45:23 0° 212° (SSW) 6,137 12.5 -41.3°
Reaches altitude 10° 20:49:59 10° 205° (SSW) 5,035 11.9 -42.2°
Enters shadow 20:58:16 32° 177° (S) 3,270 10.5 -43.9°
